Total_Precipitation_Accumulation
0.97 1.02 1.11 1.20 1.36 1.41 1.40 1.43 1.41 1.39 1.45 1.48 1.50 1.55 1.51 1.48 1.52 1.61 1.52 1.64 1.71 1.82 1.81 1.76 1.76 1.92 1.95 1.82 1.86 1.91 2.09 2.29 2.21 2.08 2.22 2.23 2.11 1.92 1.90 1.90 1.82 1.75 1.54
0.96 1.05 1.15 1.22 1.30 1.38 1.33 1.40 1.52 1.53 1.56 1.56 1.59 1.68 1.60 1.63 1.67 1.56 1.55 1.63 1.70 1.73 1.82 1.99 1.99 2.03 1.98 1.88 1.95 1.98 2.11 2.37 2.37 2.25 2.22 2.22 2.14 2.06 1.95 1.78 1.58 1.54 1.52
1.15 1.18 1.18 1.15 1.23 1.36 1.39 1.42 1.51 1.60 1.66 1.64 1.59 1.61 1.69 1.79 1.79 1.61 1.55 1.53 1.47 1.45 1.58 1.85 2.10 2.36 2.24 2.09 2.04 2.01 2.07 2.19 2.37 2.24 2.16 2.33 2.28 2.17 2.02 1.76 1.57 1.51 1.33
1.08 1.10 1.17 1.20 1.33 1.47 1.50 1.51 1.53 1.54 1.57 1.65 1.69 1.67 1.67 1.67 1.64 1.62 1.65 1.62 1.53 1.42 1.45 1.55 1.68 1.91 2.12 2.26 2.10 1.94 1.99 2.12 2.27 2.30 2.36 2.62 2.68 2.53 2.24 1.93 1.78 1.65 1.49
1.35 1.44 1.49 1.47 1.50 1.62 1.70 1.67 1.70 1.69 1.65 1.80 1.87 1.86 1.82 1.76 1.62 1.73 1.84 1.70 1.67 1.58 1.55 1.52 1.42 1.53 1.69 1.85 1.84 2.03 2.10 2.09 2.21 2.31 2.52 2.95 2.97 2.72 2.27 2.01 1.91 1.87 1.68
1.66 1.87 1.95 1.94 1.94 1.95 1.97 1.98 2.03 2.01 2.11 2.15 2.06 2.03 1.97 1.75 1.86 1.86 1.83 1.80 1.85 1.80 1.73 1.66 1.52 1.43 1.45 1.53 1.59 1.73 1.92 1.98 2.06 2.20 2.39 2.68 2.80 2.67 2.40 2.15 1.93 1.82 1.68
1.66 1.82 1.88 1.93 1.99 2.11 2.16 2.19 2.21 2.24 2.27 2.30 2.35 2.28 2.17 2.19 2.15 1.85 1.78 1.76 1.83 1.85 1.92 1.94 1.62 1.37 1.48 1.45 1.53 1.55 1.53 1.63 1.75 1.91 2.11 2.29 2.62 2.72 2.60 2.21 2.04 1.87 1.62
1.85 2.04 2.13 2.09 2.10 2.16 2.17 2.10 2.09 2.21 2.23 2.17 2.11 2.02 1.99 1.97 1.95 1.69 1.58 1.48 1.58 1.64 1.65 1.67 1.66 1.52 1.42 1.44 1.45 1.37 1.29 1.30 1.37 1.42 1.54 1.81 2.14 2.53 2.74 2.50 2.33 2.12 1.85
1.96 2.14 2.27 2.36 2.42 2.33 2.22 2.22 2.22 2.21 2.07 1.96 1.88 1.85 1.82 1.83 1.83 1.64 1.52 1.38 1.40 1.41 1.42 1.45 1.49 1.42 1.41 1.31 1.23 1.22 1.19 1.13 1.13 1.15 1.18 1.35 1.63 1.97 2.36 2.52 2.26 1.92 1.73
1.91 1.99 2.15 2.24 2.42 2.54 2.48 2.45 2.37 2.26 2.14 2.05 1.97 1.97 1.94 1.96 2.03 1.78 1.63 1.50 1.53 1.53 1.60 1.58 1.52 1.38 1.33 1.17 1.08 1.11 1.06 0.99 1.02 0.99 0.95 0.99 1.11 1.40 1.82 1.99 2.08 1.86 1.62
1.79 1.78 1.94 2.15 2.31 2.42 2.54 2.56 2.56 2.46 2.32 2.11 1.94 1.90 1.90 1.97 2.08 1.92 1.74 1.51 1.53 1.64 1.69 1.72 1.66 1.53 1.24 1.10 0.98 0.93 0.91 0.98 1.04 1.03 0.97 1.00 1.15 1.33 1.50 1.73 1.93 1.90 1.68
1.78 1.87 1.99 2.17 2.26 2.26 2.31 2.37 2.46 2.43 2.38 2.29 2.03 1.80 1.73 1.71 1.70 1.70 1.52 1.39 1.39 1.47 1.60 1.73 1.74 1.62 1.37 1.19 1.03 0.91 0.89 0.85 0.89 0.95 0.94 0.92 0.98 1.10 1.29 1.54 1.75 1.77 1.65
1.95 2.00 2.07 2.17 2.24 2.28 2.26 2.25 2.24 2.18 2.06 1.99 1.88 1.79 1.74 1.73 1.66 1.51 1.29 1.15 1.15 1.21 1.35 1.65 1.75 1.63 1.45 1.22 1.08 0.99 0.87 0.76 0.79 0.80 0.73 0.71 0.76 0.87 1.07 1.40 1.76 1.91 1.83
1.94 1.87 1.83 1.84 1.88 1.94 1.99 2.00 2.01 1.96 1.90 1.83 1.76 1.75 1.70 1.67 1.56 1.46 1.35 1.17 1.11 1.14 1.16 1.33 1.43 1.40 1.26 1.16 1.06 0.94 0.82 0.78 0.76 0.74 0.73 0.77 0.86 0.94 1.06 1.21 1.55 1.84 1.89
1.95 1.93 1.92 1.89 1.84 1.85 1.91 1.97 1.85 1.79 1.80 1.71 1.61 1.70 1.71 1.58 1.53 1.48 1.39 1.28 1.20 1.23 1.20 1.23 1.32 1.39 1.38 1.32 1.29 1.18 1.08 1.00 0.92 0.88 0.94 0.95 1.00 1.05 1.09 1.20 1.45 1.66 1.66
1.97 1.89 1.89 1.94 1.96 1.94 1.92 1.97 2.00 1.81 1.75 1.64 1.58 1.56 1.54 1.46 1.37 1.23 1.17 1.12 1.03 0.99 0.91 0.99 1.17 1.34 1.47 1.50 1.52 1.45 1.32 1.22 1.13 1.11 1.14 1.12 1.11 1.16 1.17 1.20 1.35 1.53 1.55
1.98 1.96 1.98 1.98 2.02 1.98 1.84 1.77 1.81 1.73 1.57 1.46 1.42 1.34 1.28 1.20 1.07 0.99 0.97 0.96 0.90 0.83 0.76 0.90 1.06 1.20 1.37 1.51 1.53 1.48 1.40 1.39 1.42 1.39 1.37 1.33 1.28 1.27 1.29 1.27 1.28 1.40 1.47
1.94 1.98 2.01 2.01 1.98 1.92 1.80 1.72 1.65 1.64 1.54 1.39 1.28 1.20 1.14 1.08 1.08 1.07 1.03 0.97 0.90 0.86 0.82 0.98 1.12 1.25 1.39 1.54 1.57 1.54 1.52 1.52 1.52 1.49 1.50 1.50 1.46 1.41 1.39 1.36 1.30 1.29 1.38
1.71 1.65 1.62 1.65 1.66 1.60 1.49 1.41 1.35 1.32 1.31 1.31 1.19 1.02 1.03 1.00 1.09 1.19 1.09 0.97 0.98 0.99 1.02 1.09 1.14 1.22 1.38 1.54 1.66 1.70 1.70 1.64 1.60 1.59 1.58 1.59 1.60 1.54 1.43 1.40 1.44 1.44 1.40
1.33 1.39 1.29 1.21 1.22 1.23 1.19 1.13 1.09 1.10 1.14 1.22 1.17 0.98 0.92 0.94 1.06 1.19 1.06 1.05 1.07 1.04 1.05 1.11 1.14 1.17 1.32 1.46 1.57 1.66 1.71 1.67 1.61 1.60 1.59 1.58 1.58 1.57 1.48 1.47 1.56 1.55 1.40
1.06 1.00 1.00 0.90 0.90 1.00 1.05 1.01 0.97 1.01 1.07 1.14 1.07 0.91 0.83 0.83 1.07 1.16 1.09 1.06 1.03 0.99 1.02 1.03 1.07 1.14 1.25 1.40 1.48 1.58 1.66 1.64 1.57 1.55 1.61 1.64 1.57 1.53 1.47 1.48 1.51 1.55 1.51
0.75 0.74 0.71 0.68 0.74 0.79 0.82 0.88 0.96 1.01 1.05 1.08 0.99 0.86 0.84 0.87 1.04 1.10 1.03 1.02 1.02 1.00 1.00 1.02 1.02 1.07 1.16 1.27 1.32 1.41 1.54 1.54 1.50 1.49 1.57 1.67 1.61 1.53 1.50 1.49 1.48 1.54 1.58
0.64 0.67 0.67 0.66 0.73 0.74 0.76 0.84 0.99 1.07 1.07 1.05 0.99 0.94 0.92 0.95 1.00 1.03 1.01 0.96 0.95 0.98 1.01 1.04 1.06 1.07 1.12 1.20 1.23 1.30 1.44 1.44 1.41 1.44 1.51 1.55 1.54 1.50 1.49 1.46 1.44 1.50 1.54
0.61 0.65 0.69 0.68 0.67 0.70 0.76 0.80 0.85 0.89 0.93 0.94 0.93 0.91 0.89 0.90 0.93 0.94 0.94 0.93 0.93 0.95 0.98 1.05 1.08 1.10 1.12 1.16 1.16 1.16 1.26 1.27 1.21 1.21 1.28 1.38 1.42 1.42 1.42 1.40 1.35 1.38 1.44
0.62 0.69 0.73 0.79 0.78 0.77 0.78 0.79 0.80 0.79 0.79 0.81 0.85 0.90 0.91 0.90 0.92 0.95 0.97 0.99 0.98 0.97 0.94 0.95 0.99 1.03 1.01 0.97 0.98 1.00 1.08 1.04 0.97 0.97 1.08 1.22 1.26 1.29 1.31 1.29 1.28 1.33 1.41
0.67 0.71 0.78 0.85 0.87 0.85 0.86 0.88 0.87 0.86 0.86 0.83 0.86 0.90 0.97 1.01 1.01 1.03 1.04 1.02 1.00 0.99 0.96 0.97 0.99 0.94 0.92 0.91 0.88 0.91 0.89 0.82 0.81 0.86 0.89 0.98 1.09 1.13 1.18 1.22 1.20 1.25 1.31